GFSSW_500_spd_132.txt.gz
Wind_Speed
50 49 46 41 35 32 27 27 29 29 33 35 37 40 40 44 46 47 46 49 50 52 56 54 54 56 56 55 54 56 59 59 52 50 44 27 44 28 31 49 42 34 45 42 30
49 47 44 37 35 30 26 22 24 26 28 32 35 37 37 40 43 44 45 47 47 49 53 56 56 54 55 55 55 56 57 56 53 48 54 46 22 15 25 46 50 49 50 50 49
51 48 43 36 34 32 24 18 20 23 24 27 31 33 34 36 39 40 42 45 47 49 51 53 55 55 56 55 55 57 57 54 40 53 63 46 35 32 35 35 35 43 52 52 38
52 50 42 34 32 30 22 15 18 21 21 25 29 31 31 34 38 39 40 42 43 48 51 53 54 55 55 55 54 58 57 54 51 56 66 60 40 43 40 32 38 53 53 50 44
50 47 41 32 28 27 19 9 13 17 19 24 25 28 31 33 34 30 34 36 39 43 48 52 54 55 55 54 54 56 55 55 61 64 61 60 60 51 49 50 53 57 56 51 51
48 47 41 32 26 24 15 6 10 15 17 19 24 27 28 28 31 29 27 29 35 41 48 52 55 57 59 59 60 58 56 57 57 66 64 62 60 65 60 43 49 55 54 50 48
48 46 39 33 24 21 17 12 12 13 16 19 23 24 24 27 22 24 24 22 23 27 36 46 53 61 64 65 63 59 48 49 63 66 69 63 61 66 61 60 63 52 56 52 50
46 45 38 31 23 20 18 14 14 14 17 20 21 20 22 19 21 22 23 21 20 20 27 38 46 54 62 60 57 45 50 47 59 58 65 71 65 52 57 63 58 60 49 53 53
44 43 37 33 24 20 18 14 16 16 18 21 20 20 17 18 20 23 21 20 18 16 22 34 41 49 53 56 40 44 53 50 43 54 60 69 65 60 48 50 54 54 59 56 54
41 41 35 33 27 20 17 14 16 18 20 22 22 20 18 19 19 19 18 14 15 15 17 29 38 44 46 44 47 45 45 48 32 27 41 64 64 67 63 52 50 49 63 58 59
39 41 34 32 26 20 17 16 14 22 23 24 24 22 20 18 18 18 16 16 14 12 13 18 37 44 44 39 47 33 39 40 46 31 44 50 55 65 65 64 42 39 50 56 63
36 37 34 32 26 19 18 17 15 20 24 23 25 21 21 21 22 21 19 17 16 10 12 16 27 31 32 35 42 34 33 25 26 44 31 42 47 52 63 59 52 38 42 43 69
35 35 35 32 26 20 19 18 16 17 25 25 26 23 24 24 21 20 16 14 14 16 17 16 15 25 26 28 34 37 30 24 29 33 41 37 34 42 44 48 44 46 43 52 68
33 36 41 36 26 20 18 17 15 17 24 28 28 27 28 27 26 21 19 16 16 17 18 17 19 25 28 29 31 30 36 23 24 30 43 34 31 30 29 42 40 45 43 55 62
36 39 38 39 27 21 17 17 14 16 19 28 25 26 26 22 22 23 23 21 18 18 22 22 20 21 26 28 29 24 25 34 26 21 19 19 27 24 23 25 33 27 28 35 50
35 36 40 38 27 23 17 15 12 16 21 24 29 29 29 29 25 25 23 25 25 22 22 16 16 20 22 22 24 27 20 16 27 19 26 22 27 23 28 23 19 25 29 23 20
37 37 38 38 25 21 16 10 13 19 21 18 22 29 27 29 28 29 28 28 30 29 25 25 19 21 20 22 29 28 25 23 25 28 28 20 24 20 16 19 24 28 22 21 25
43 42 39 34 23 18 15 8 15 16 25 18 17 27 30 30 30 29 29 29 29 26 19 22 23 24 26 26 23 32 21 19 18 15 16 15 25 15 22 24 26 27 16 22 28
47 45 39 27 20 16 15 12 22 18 33 27 22 27 29 31 28 30 31 30 29 27 22 23 17 21 26 26 26 26 34 28 32 23 17 21 27 32 29 30 23 28 29 27 30
51 49 38 19 15 15 15 10 18 21 31 33 29 28 28 29 29 29 34 32 31 27 27 24 18 17 23 31 31 19 19 26 18 23 18 26 32 27 28 27 30 33 31 30 31
54 41 30 17 14 15 12 10 12 16 16 30 26 33 32 25 29 34 31 30 31 29 32 27 24 22 24 27 28 26 26 27 20 21 14 15 29 24 28 26 25 27 27 28 29
54 37 26 17 15 15 14 17 10 24 12 9 28 37 41 39 34 31 22 21 22 26 35 23 34 29 22 15 24 27 25 19 28 29 29 20 19 18 22 22 21 27 28 33 28
45 32 20 14 12 16 14 14 17 14 19 27 20 37 41 45 37 30 29 35 24 34 34 38 32 29 35 25 23 34 30 33 18 35 36 31 32 30 38 21 15 18 34 36 30
34 24 15 10 14 17 17 17 19 20 18 18 24 28 37 43 45 32 40 39 42 38 39 43 34 28 28 26 21 25 29 24 26 33 31 36 25 18 27 29 28 29 32 32 31
28 15 19 16 15 22 27 24 18 27 26 22 23 30 36 43 42 37 32 39 38 36 45 34 36 31 29 26 28 21 27 32 34 36 28 26 32 39 31 33 26 24 24 28 29
23 15 20 19 11 25 26 20 18 24 19 21 26 30 28 34 27 29 28 30 22 24 37 30 39 33 27 28 23 24 20 21 28 39 32 33 23 15 19 29 24 24 27 25 27
19 14 15 21 23 27 20 19 13 22 19 23 23 37 38 32 33 35 30 21 22 19 27 33 36 32 29 21 26 27 20 16 16 15 17 21 23 33 36 27 26 26 28 27 25

GFSSW_500_spd_138.txt.gz
Wind_Speed
41 41 39 41 45 44 36 38 36 35 35 35 35 37 38 46 50 49 45 52 56 54 54 56 57 56 57 57 60 61 62 57 52 48 42 46 46 49 42 38 39 32 32 28 23
42 41 40 42 45 44 37 38 36 33 32 30 30 33 35 38 46 47 48 52 56 54 52 54 56 58 58 58 59 61 60 56 49 53 49 50 44 49 45 50 37 41 40 33 31
41 42 39 42 44 42 36 36 33 31 26 22 24 29 31 34 40 43 47 49 52 54 52 52 55 56 58 60 57 57 59 55 54 55 56 53 51 48 37 57 46 41 44 43 37
41 41 37 41 44 41 36 34 30 27 23 17 21 26 30 32 36 40 44 47 48 51 52 50 54 57 58 58 58 56 53 54 53 58 59 59 56 45 41 44 47 50 44 39 42
42 40 37 39 45 44 36 33 29 23 20 13 17 23 27 29 32 36 39 41 41 47 49 48 49 53 55 56 59 59 55 52 50 56 62 65 58 50 51 43 50 49 49 51 47
43 42 38 38 42 42 35 34 27 23 17 12 11 16 20 22 32 35 35 37 38 40 44 46 44 47 51 54 57 58 55 52 49 55 59 61 65 62 51 53 51 52 51 51 50
42 43 38 36 38 40 34 33 26 22 17 12 7 10 19 31 28 32 33 38 39 38 40 43 44 47 51 53 54 54 57 55 53 55 59 60 66 63 57 54 54 53 53 53 55
43 44 41 36 37 39 36 33 28 21 16 14 12 16 26 23 25 27 33 35 35 39 42 43 43 45 48 51 55 55 55 55 50 56 58 60 59 58 62 66 60 47 46 46 40
43 43 37 35 36 39 38 32 29 20 16 13 10 15 17 17 21 27 28 30 31 34 39 42 43 45 48 51 55 59 57 54 51 55 59 57 57 56 61 65 64 62 45 40 41
43 41 36 34 33 36 38 36 26 20 15 15 15 20 21 27 31 31 32 34 31 33 37 38 41 43 46 50 51 52 55 55 51 56 56 57 56 56 58 63 65 64 62 63 59
44 40 37 37 35 34 38 39 25 19 17 19 16 21 21 24 27 32 33 31 32 30 30 29 29 28 36 43 47 51 54 55 55 55 57 58 59 58 53 56 61 63 63 61 55
44 40 39 39 39 40 38 37 30 20 17 17 22 22 23 24 29 34 35 33 31 26 25 24 24 18 22 34 42 48 53 55 56 55 58 60 60 57 54 51 53 54 57 58 54
49 45 40 43 43 40 41 37 31 22 17 18 26 26 27 26 27 29 30 28 25 25 23 14 16 18 18 26 39 49 53 56 57 57 57 60 62 60 54 52 53 51 50 54 56
51 48 42 42 43 44 42 37 29 20 14 20 23 27 26 25 24 24 27 27 26 25 25 25 22 16 12 18 31 44 46 49 51 52 57 55 56 50 50 57 52 49 48 47 51
51 49 45 44 44 46 41 29 23 14 13 17 23 29 31 27 27 26 28 27 24 22 21 19 16 15 7 10 25 31 34 39 39 34 39 37 49 54 43 47 50 55 46 39 40
54 50 47 48 52 43 33 25 16 11 13 9 20 33 33 32 28 27 27 27 24 23 22 18 20 14 9 10 16 25 34 32 34 38 41 39 41 47 46 43 44 45 45 31 28
56 53 51 51 48 37 28 18 14 10 11 11 15 29 27 32 33 32 31 31 29 27 26 26 19 20 20 20 24 30 37 30 26 29 31 26 27 28 24 27 35 38 40 39 31
58 58 53 57 44 30 17 12 13 15 18 13 18 33 29 34 34 31 31 29 26 24 26 25 22 23 24 30 22 25 40 33 30 28 24 21 24 26 11 18 19 21 28 32 33
66 62 64 48 35 17 8 8 9 16 19 18 21 36 33 32 31 29 28 26 23 22 21 20 21 26 25 28 28 25 28 21 23 24 27 27 28 24 22 28 29 26 24 21 21
71 65 60 41 19 7 1 5 10 17 14 13 24 33 34 32 33 30 28 27 24 20 21 21 20 22 20 17 22 29 24 26 28 31 38 39 38 37 32 33 32 27 25 17 18
74 69 51 24 9 6 6 10 13 17 15 17 22 32 32 32 30 29 26 25 24 20 22 29 30 24 24 22 21 24 28 29 24 20 39 35 33 33 36 37 31 28 28 22 22
74 67 35 9 1 6 9 10 15 11 5 16 23 34 37 36 33 32 26 24 22 23 25 28 28 24 29 25 23 24 29 28 27 31 24 27 24 33 34 35 25 29 32 30 26
76 59 21 4 9 10 10 11 14 9 0 7 22 34 39 38 36 34 28 22 26 34 30 29 27 24 26 29 29 27 30 32 28 28 31 32 25 24 33 37 31 31 31 30 28
79 51 18 27 19 19 16 19 19 18 12 12 22 38 36 36 34 33 31 30 32 40 36 33 28 25 19 27 30 30 30 29 28 24 32 33 28 18 8 26 26 38 38 34 23
80 46 14 18 29 16 15 21 20 20 10 15 22 36 34 32 38 33 36 29 34 44 42 37 32 25 30 30 30 29 34 34 29 27 25 28 24 21 21 17 23 22 29 29 10
76 36 10 14 21 18 18 18 20 22 14 14 21 20 23 29 39 38 39 32 33 45 45 41 36 29 26 30 33 28 33 36 35 34 31 30 30 29 27 24 23 20 21 18 20
66 23 5 11 16 20 14 20 10 10 12 12 16 18 24 26 41 40 41 39 36 39 45 43 42 37 34 29 33 31 32 33 41 38 35 33 32 27 28 30 27 26 35 30 20

GFSSW_500_spd_141.txt.gz
Wind_Speed
37 40 41 40 42 39 39 45 44 39 42 44 41 40 39 41 46 55 52 56 60 62 60 61 61 60 60 60 60 62 63 58 51 47 48 49 52 56 44 41 39 34 31 30 23
39 40 40 39 43 41 39 45 43 39 41 40 36 35 36 37 40 52 56 58 61 59 59 60 60 60 61 61 60 64 63 56 55 50 48 49 50 58 54 42 43 42 34 33 31
41 39 40 42 43 40 40 43 43 39 40 36 32 27 27 31 37 45 53 55 58 57 58 59 61 61 61 63 60 60 62 57 54 56 52 49 49 53 56 52 45 47 41 35 33
40 40 41 42 41 40 40 42 38 37 38 32 27 23 23 27 33 41 48 53 55 55 55 57 61 61 61 63 61 60 57 55 59 58 60 53 49 53 56 54 51 46 42 40 36
42 40 41 42 41 39 41 45 38 35 33 29 24 19 19 23 30 37 43 49 52 52 51 53 56 58 59 61 62 61 55 53 55 61 59 61 54 50 52 56 52 51 52 47 40
41 41 41 42 41 39 42 46 46 34 33 27 21 17 17 22 30 31 39 43 48 49 48 50 52 55 55 57 60 61 57 52 50 57 63 60 61 52 48 53 57 59 48 54 55
41 40 41 43 43 39 42 44 43 33 31 26 20 13 17 24 25 31 36 38 45 46 46 45 49 52 55 57 57 59 57 55 50 54 57 62 64 59 51 50 53 58 53 49 46
42 42 44 43 44 40 41 42 44 31 33 25 22 17 18 17 17 24 32 37 40 44 46 51 48 49 52 56 57 58 56 54 51 51 55 61 61 57 63 53 52 55 58 52 50
41 44 46 44 44 41 40 41 40 39 33 24 21 21 20 17 23 28 31 34 39 40 43 47 51 51 51 54 56 57 57 58 52 54 56 58 59 64 63 64 60 57 57 59 58
45 46 47 47 45 42 43 40 39 34 33 26 19 18 14 21 29 30 33 34 38 39 40 41 43 46 49 52 54 55 54 55 52 55 57 57 57 60 65 65 68 65 62 62 60
46 49 50 49 47 44 41 39 35 36 31 27 20 19 18 23 27 32 36 37 38 38 34 35 37 37 39 45 50 52 53 52 51 54 56 57 57 56 60 61 65 68 69 66 65
51 51 54 49 47 43 41 39 38 36 28 27 21 21 23 23 30 32 37 39 38 39 39 37 33 33 36 40 44 48 48 49 49 50 56 57 58 57 55 55 58 65 66 68 68
54 54 56 50 48 46 44 41 41 35 25 27 20 23 25 27 32 29 31 32 31 33 32 30 27 30 34 37 40 43 45 45 46 50 54 56 58 57 55 56 56 58 58 60 63
57 59 60 53 52 48 47 47 37 24 21 21 19 26 25 29 31 30 28 29 34 32 28 25 28 29 31 33 36 42 46 47 48 50 55 57 58 57 57 56 51 52 55 58 59
62 65 63 61 53 56 51 38 22 17 12 14 20 27 27 25 29 29 30 31 29 28 30 28 34 31 29 26 31 38 43 48 48 51 53 57 60 58 57 56 51 50 52 51 53
66 69 69 62 68 50 39 27 15 13 11 9 15 22 32 33 28 31 32 34 33 32 30 32 27 27 19 21 25 32 39 38 38 41 53 56 60 61 57 55 51 45 45 45 47
69 72 72 76 57 40 26 16 10 12 17 12 15 19 32 33 33 32 32 37 36 37 35 31 27 27 27 25 25 34 38 38 36 38 54 54 54 59 54 46 39 41 35 34 38
73 75 77 67 47 21 12 5 6 16 21 9 15 27 37 35 33 32 30 34 33 29 32 30 29 29 24 23 28 39 40 41 38 42 45 28 41 46 37 40 40 41 44 44 41
77 78 81 56 22 10 7 4 9 16 19 5 16 36 41 36 34 34 32 28 27 28 25 24 23 24 20 23 24 33 38 28 30 26 27 31 31 33 32 33 33 39 50 53 42
80 82 70 36 10 8 9 7 11 16 12 6 29 37 38 42 38 36 34 30 27 23 20 23 24 21 26 22 23 25 28 27 30 25 17 20 19 27 33 23 23 27 32 33 35
82 85 61 13 8 7 11 2 8 16 3 7 28 31 38 39 35 33 28 26 28 23 22 30 29 30 32 27 24 24 30 30 22 21 18 18 24 28 31 32 23 30 34 31 25
83 86 50 2 4 6 11 12 13 16 4 12 22 29 35 35 34 35 31 27 27 27 26 29 32 33 29 26 24 26 25 26 22 25 21 19 26 36 32 33 33 30 37 30 25
86 86 47 11 12 11 10 11 14 16 5 5 24 21 33 36 35 32 30 28 28 30 31 32 32 34 32 28 29 26 24 23 25 24 25 21 16 23 30 31 29 28 37 37 29
87 83 45 13 20 14 14 10 13 16 3 9 17 21 31 34 34 32 30 33 36 32 32 32 35 32 26 26 27 26 23 24 28 28 22 20 20 24 22 24 33 38 39 34 34
89 79 41 8 29 25 21 16 14 17 3 7 20 28 30 35 35 35 36 34 37 39 39 34 32 29 24 29 27 27 29 26 30 27 27 22 20 18 26 21 32 38 34 32 30
87 64 26 1 20 21 21 19 19 16 11 8 16 29 33 37 35 39 36 37 39 40 42 36 29 28 25 19 25 27 29 30 30 25 28 28 23 20 19 16 5 11 7 20 31
84 49 16 4 11 20 19 16 17 15 16 8 19 31 30 27 34 38 37 36 38 38 38 38 32 27 24 22 26 28 29 28 28 28 27 27 24 23 22 12 10 12 14 23 34

GFSSW_500_spd_144.txt.gz
Wind_Speed
36 37 39 40 40 39 42 43 41 39 44 50 45 42 46 51 48 50 51 56 61 62 64 62 63 65 66 65 62 63 65 62 52 50 48 51 53 52 44 42 43 40 33 30 25
39 40 40 39 39 42 42 41 41 45 46 49 40 42 45 42 40 40 47 53 60 61 63 62 63 66 67 66 64 63 64 58 57 52 49 49 53 55 52 44 42 45 38 35 36
39 40 40 39 40 42 41 42 45 46 47 46 40 40 42 37 35 37 42 48 57 58 62 63 64 66 67 67 65 62 63 59 61 57 50 50 52 52 57 55 42 42 35 33 35
42 42 41 39 38 41 41 44 47 46 48 47 37 39 38 33 29 31 40 46 53 56 61 61 63 65 67 68 66 63 59 57 60 65 55 52 50 51 55 60 56 44 40 36 35
44 43 42 39 39 40 42 46 47 46 47 44 36 38 34 30 26 28 36 43 50 53 57 58 60 63 64 67 67 64 59 56 57 61 65 56 50 50 53 59 61 54 50 39 38
46 44 40 40 41 42 46 47 46 46 44 40 33 35 31 28 26 21 33 39 46 51 55 56 58 60 63 64 65 64 59 55 53 62 64 62 54 48 53 51 56 55 52 53 44
47 42 40 40 40 44 48 46 44 46 44 40 32 33 28 30 25 23 30 36 42 50 52 53 56 60 62 62 62 63 59 55 52 55 61 63 63 55 48 46 48 52 51 48 51
47 43 42 44 43 47 51 49 44 47 43 36 28 31 23 25 17 23 29 35 39 48 51 54 55 57 58 60 60 60 59 55 51 52 56 63 61 63 52 49 44 47 48 50 47
45 44 47 48 48 52 54 51 46 46 40 32 28 28 26 25 20 27 31 35 39 46 49 55 56 57 58 59 59 62 58 56 51 52 54 58 61 62 63 58 51 52 47 48 48
47 47 50 52 54 58 57 53 48 44 39 34 29 26 23 20 25 27 35 37 39 44 46 50 55 56 58 59 59 58 56 55 51 54 54 53 57 65 64 63 64 61 53 54 54
48 51 53 57 61 60 62 55 48 44 39 32 28 26 21 21 29 31 33 37 42 43 44 45 48 47 50 54 56 55 53 54 54 54 54 53 54 59 65 65 62 64 66 56 56
51 55 61 64 62 64 62 55 49 45 35 34 29 24 23 23 23 37 36 38 40 41 44 43 42 41 45 51 53 54 55 52 49 51 53 55 56 53 58 61 64 62 60 60 61
55 61 66 69 68 71 71 58 49 43 39 29 27 23 24 25 27 30 33 34 35 38 41 40 38 40 43 45 47 49 50 51 49 50 55 55 57 56 54 56 59 61 62 61 61
61 68 73 76 79 75 62 48 37 26 19 17 21 23 23 25 26 26 28 32 38 38 39 34 34 37 40 42 43 45 45 45 46 50 52 54 55 55 53 54 53 54 57 60 59
66 74 81 83 89 60 44 29 19 13 8 5 14 20 24 25 26 26 28 32 34 32 34 29 30 33 37 37 39 39 40 42 44 49 52 54 56 54 54 53 52 53 53 54 56
70 78 82 91 74 48 26 14 7 3 5 10 7 17 22 32 29 28 29 32 32 32 27 29 30 33 31 35 38 35 39 42 44 47 51 52 56 56 54 51 52 51 51 53 54
74 82 87 96 54 26 18 8 5 10 14 7 7 17 28 33 32 33 34 36 36 36 36 34 34 30 33 35 35 37 40 42 45 48 50 51 55 54 54 54 54 53 53 52 54
78 84 90 77 30 15 12 7 5 8 16 7 16 18 33 33 32 31 33 32 31 31 31 34 34 35 37 36 32 36 40 45 48 50 52 49 55 55 55 55 50 51 48 53 55
79 86 94 60 14 12 10 8 9 8 3 13 21 17 32 34 31 34 33 28 28 31 31 32 30 28 25 21 23 27 32 35 41 44 49 50 52 54 54 51 50 50 46 44 44
81 87 95 42 5 9 10 10 9 11 5 12 25 23 34 36 35 35 36 32 30 30 30 25 24 22 23 24 23 23 24 31 40 36 33 35 36 37 36 36 37 33 34 37 42
82 85 87 30 3 7 10 8 9 15 6 8 29 11 36 38 37 36 32 32 30 28 28 25 26 27 27 24 22 22 23 22 21 21 17 15 21 20 23 27 29 33 34 36 37
83 85 86 28 7 4 3 2 8 8 9 9 18 19 31 30 32 36 32 30 28 23 22 27 31 28 25 23 19 13 13 18 20 21 14 16 17 16 21 30 29 28 31 33 34
81 84 79 29 8 8 5 5 8 5 12 11 22 19 28 31 33 34 33 30 30 28 26 29 31 30 28 26 24 21 20 20 18 17 15 13 11 16 18 26 34 32 29 31 34
79 84 75 31 13 7 9 9 15 6 13 10 24 18 34 31 31 32 33 33 32 30 29 29 31 31 28 23 22 23 21 19 18 19 18 16 11 10 12 15 20 28 36 34 43
79 82 70 28 8 12 11 8 14 12 5 7 12 13 36 30 34 32 34 33 35 39 38 36 34 32 31 25 24 23 22 22 21 17 17 16 14 11 13 16 20 27 24 30 32
75 77 59 29 5 16 13 9 3 11 2 6 13 17 28 29 34 33 34 35 36 37 38 37 35 35 30 26 25 25 25 24 22 18 18 18 20 15 14 12 15 5 22 25 21
75 75 48 28 9 14 12 13 7 10 8 1 13 19 21 36 34 35 34 34 35 35 32 34 37 35 31 24 25 20 26 24 22 23 18 16 15 16 14 16 15 5 8 23 11

GFSSW_500_spd_147.txt.gz
Wind_Speed
36 35 35 35 38 37 38 39 39 39 35 39 39 41 48 53 54 46 44 51 53 56 56 54 59 63 64 65 65 63 64 59 59 53 52 52 53 53 46 42 39 33 26 30 22
38 39 39 38 38 38 39 38 40 38 36 40 40 39 45 51 50 41 46 51 58 61 61 59 60 65 65 66 67 66 65 59 58 57 55 53 51 52 50 44 41 36 35 30 25
42 42 40 39 39 37 36 37 36 37 41 42 43 43 46 52 43 40 45 46 51 56 62 65 61 66 66 67 66 66 65 59 59 63 58 54 51 50 51 50 44 40 37 35 32
42 42 42 40 39 36 37 37 37 40 43 43 45 47 50 47 39 41 39 39 46 51 56 65 64 65 68 67 66 67 67 60 61 64 64 56 51 50 51 52 50 48 43 39 34
43 43 43 41 38 38 39 41 44 44 45 46 47 50 48 39 42 36 34 32 39 49 53 59 63 63 65 67 68 68 66 60 60 64 67 60 52 48 49 51 52 49 49 38 38
44 45 44 40 40 42 44 46 48 50 53 50 49 51 43 30 39 33 31 28 35 47 51 55 60 62 63 67 69 67 66 61 59 63 65 66 53 50 50 51 50 52 48 47 35
45 46 43 41 44 46 46 48 52 54 56 50 50 48 36 34 30 32 28 24 33 41 47 52 58 62 62 66 67 67 65 62 59 59 65 67 65 51 50 51 50 48 50 51 51
46 46 44 46 47 51 55 58 59 58 54 52 47 38 27 35 25 25 27 23 30 38 46 52 57 62 63 64 65 65 62 62 58 56 62 67 69 60 53 53 50 47 45 43 47
49 49 48 50 54 60 65 67 62 58 55 49 41 36 27 31 23 26 27 25 31 39 46 52 58 60 62 63 63 64 63 62 59 56 59 63 68 66 59 57 53 48 46 43 41
51 52 54 56 61 69 72 70 73 64 51 46 41 35 30 27 24 28 32 31 34 39 47 52 57 61 62 64 65 63 60 58 55 56 57 61 64 65 67 66 56 58 56 49 46
54 55 60 66 71 75 79 78 68 59 50 45 38 31 26 24 21 27 34 34 38 43 46 52 53 55 54 55 57 57 57 57 55 56 55 58 63 65 66 68 64 56 46 53 53
58 62 69 72 77 85 85 71 54 44 34 31 30 26 23 21 23 35 34 38 38 42 44 49 51 53 54 58 59 58 55 53 52 53 55 57 58 60 62 59 58 59 56 56 49
64 70 72 80 84 89 69 48 32 23 14 15 18 21 22 20 25 32 30 34 35 38 41 45 48 49 50 53 54 55 54 52 51 52 55 56 56 56 58 61 61 60 58 57 55
68 72 79 84 94 70 40 28 15 11 8 2 6 20 20 21 26 27 37 34 37 38 43 42 44 43 44 48 49 48 49 49 50 52 52 54 54 53 53 54 58 60 61 60 58
71 77 83 91 86 42 29 18 11 11 17 15 3 9 18 20 26 22 31 34 33 33 37 36 38 40 42 41 42 42 41 44 49 49 52 52 54 53 55 54 49 52 55 57 58
75 79 85 96 58 30 25 14 14 19 16 20 6 9 14 18 25 27 26 28 31 32 32 33 34 36 35 36 38 37 39 41 44 47 49 50 51 53 51 51 54 53 51 51 51
78 80 88 90 39 28 19 12 9 12 12 22 10 16 15 22 25 25 26 32 32 35 33 33 33 31 32 34 32 35 36 39 42 45 49 51 50 51 51 52 52 52 53 52 51
77 81 90 80 29 27 19 10 10 10 27 10 15 14 20 24 28 27 28 29 33 33 35 36 35 36 36 35 38 41 40 42 46 49 51 51 51 52 51 52 53 53 54 52 51
76 81 90 73 21 20 12 9 4 16 25 18 16 18 24 26 25 30 28 26 28 32 34 33 32 30 30 31 35 36 37 39 43 46 48 48 48 52 53 53 53 53 53 52 51
75 79 88 68 13 13 7 4 3 22 26 12 15 18 25 26 27 28 31 29 25 28 29 27 26 24 25 26 26 26 25 32 34 37 40 42 43 48 47 49 50 50 49 47 47
73 77 85 63 7 9 6 3 1 25 21 8 15 21 23 26 26 27 28 28 27 28 28 28 25 28 28 29 27 27 28 31 30 33 36 41 38 36 36 47 43 41 44 43 45
70 74 83 58 6 4 5 3 13 21 16 8 14 13 23 25 28 27 27 25 26 24 27 30 27 20 20 19 17 16 13 16 15 17 19 20 24 23 21 21 21 26 30 33 36
68 73 80 59 8 4 2 6 8 16 15 7 15 14 26 24 29 31 29 29 27 24 22 22 24 24 24 23 21 18 16 15 12 14 18 8 14 17 17 18 24 28 29 30 33
66 72 78 65 16 4 1 4 6 14 15 11 13 24 26 27 30 32 32 30 30 27 26 25 24 23 21 19 18 18 15 15 13 13 18 10 11 7 13 14 19 29 28 31 33
65 68 74 67 26 7 4 6 7 4 10 5 5 12 26 28 32 32 33 32 32 30 27 29 28 26 24 23 19 16 12 13 12 11 14 10 12 9 10 11 15 24 36 35 34
60 64 71 69 31 6 7 5 6 4 3 4 8 13 27 28 32 33 32 32 32 33 33 34 33 29 26 21 19 16 16 17 18 18 14 10 11 13 9 9 16 25 33 38 39
59 61 68 66 36 4 9 4 3 5 2 2 7 10 32 27 31 31 31 33 33 31 30 30 30 29 24 22 19 17 15 15 14 13 11 8 9 10 12 13 12 10 15 23 25